This demonstration page uses our WeatherBlox Daily Observations layout. Learn more.

38.89511, -77.03637

Hourly Observations for July 26, 2017

Temp ( °F °C ) Dew Point ( °F °C ) Humidity (%) Winds ( mph kmh ) Pressure ( in mb ) Visibility ( mi km ) Precip ( " mm )
12:52 am 00:52 Mostly Clear 74 23.3 63 17.2 69 69 NNE 8 13 30.18 1022 10 16.09344 0 0
1:52 am 01:52 Mostly Clear 73 22.8 63 17.2 71 71 NNE 9 15 30.18 1022 10 16.09344 0 0
2:52 am 02:52 Clear 72 22.2 63 17.2 73 73 NE 8 13 30.18 1022 10 16.09344 0 0
3:52 am 03:52 Partly Cloudy 71 21.7 63 17.2 76 76 NNE 9 15 30.18 1022 10 16.09344 0 0
4:52 am 04:52 Partly Cloudy 69 20.6 63 17.2 81 81 NNE 9 15 30.18 1022 10 16.09344 0 0
5:52 am 05:52 Mostly Cloudy 69 20.6 64 17.8 84 84 NNE 5 7 30.18 1022 10 16.09344 0 0
6:52 am 06:52 Partly Cloudy 70 21.1 65 18.3 84 84 NNE 6 9 30.18 1022 10 16.09344 0 0
7:52 am 07:52 Partly Cloudy 72 22.2 66 18.9 82 82 NNE 7 11 30.21 1023 10 16.09344 0 0
8:52 am 08:52 Mostly Cloudy 75 23.9 67 19.4 76 76 N 3 6 30.21 1023 10 16.09344 0 0
9:52 am 09:52 Partly Cloudy 77 25 68 20 74 74 Calm 30.21 1023 10 16.09344 0 0
10:52 am 10:52 Partly Cloudy 78 25.6 63 17.2 60 60 Calm 30.18 1022 10 16.09344 0 0
11:52 am 11:52 Partly Cloudy 81 27.2 63 17.2 54 54 ESE 3 6 30.18 1022 10 16.09344 0 0
12:52 pm 12:52 Partly Cloudy 83 28.3 60 15.6 46 46 ESE 5 7 30.18 1022 10 16.09344 0 0
1:52 pm 13:52 Partly Cloudy 83 28.3 62 16.7 49 49 S 6 9 30.15 1021 10 16.09344 0 0
2:52 pm 14:52 Partly Cloudy 83 28.3 63 17.2 51 51 N 5 7 30.12 1020 10 16.09344 0 0
3:52 pm 15:52 Mostly Cloudy 85 29.4 63 17.2 48 48 SE 5 7 30.12 1020 10 16.09344 0 0
4:52 pm 16:52 Mostly Cloudy 84 28.9 61 16.1 46 46 Calm 30.09 1019 10 16.09344 0 0
5:52 pm 17:52 Partly Cloudy 85 29.4 62 16.7 46 46 S 8 13 30.09 1019 10 16.09344 0 0
6:52 pm 18:52 Partly Cloudy 84 28.9 61 16.1 46 46 S 9 15 30.06 1018 10 16.09344 0 0
7:52 pm 19:52 Partly Cloudy 81 27.2 69 20.6 67 67 SE 14 22 30.06 1018 10 16.09344 0 0
8:52 pm 20:52 Partly Cloudy 79 26.1 68 20 69 69 SE 12 19 30.06 1018 10 16.09344 0 0
9:52 pm 21:52 Partly Cloudy 77 25 69 20.6 77 77 SE 8 13 30.09 1019 10 16.09344 0 0
10:52 pm 22:52 Partly Cloudy 76 24.4 71 21.7 85 85 SE 9 15 30.09 1019 10 16.09344 0 0
11:52 pm 23:52 Partly Cloudy 75 23.9 71 21.7 88 88 SE 7 11 30.09 1019 10 16.09344 0 0

Powered by AerisWeather